sat.trackr.live / text

‹ back to catalog

STARLINK-30394

NORAD 57810 · 2023-138C

PAYLOAD ACTIVE UNKNOWN

§ Identity

Operator
Country
US
Launch date
2023-09-09
Launch site
AFETR
Launch vehicle
Mass (kg)
RCS (m²)

Purposes: comms

External: N2YO · Heavens-Above · Gunter

§ Orbital elements

Epoch: 2026-09-20T21:30:18.613728Z

Period
94.27 min
Inclination
42.9978°
Eccentricity
0.0000057
Mean motion
15.27596767 rev/d
Perigee alt
483.0 km
Apogee alt
483.0 km
Semi-major
6,861.1 km
B*
3.7432e-4
RAAN
211.6734°
Arg perigee
130.6659°
Mean anomaly
229.4198°
Rev number
16,849

§ Raw data

STARLINK-303941 57810U 23138C   26263.89604877  .00010058  00000+0  37432-3 0  99912 57810  42.9978 211.6734 0000057 130.6659 229.4198 15.27596767168496

JSON: /api/v1/satellites/57810 · /tle

For live sub-satellite position, see the globe view (requires WebGL).

§ Visibility from observer

Set your observer location to see the next 7 days of passes ≥ 10°. The values pass through the URL so the page stays shareable.

No JS? Fill the form by hand. The geolocation button needs JavaScript.